Regional Weather Roundup
Issued by NWS Upton, NY

Current Version | Previous Version | Graphics & Text | Print | Product List | Glossary Off
Versions: 1 2 3 4 5 6 7 8 9 10 11 12 13 14 15 16 17 18 19 20 21 22 23 24 25 26 27 28 29 30 31 32 33 34 35 36 37 38 39 40 41 42 43 44 45 46 47 48 49 50

964
ASUS41 KOKX 171708
RWROKX

Regional Weather Roundup
National Weather Service New York NY
1200 PM EST WED JAN 17 2018

Note: "FAIR" indicates few or no clouds below 12,000 feet with no
significant weather and/or obstructions to visibility.

NYZ071-072-176-178-NJZ106-104-171800-
New York City Metro Area

CITY           SKY/WX    TMP DP  RH WIND       PRES   REMARKS
Central Park   LGT SNOW  33  31  92 VRB5      30.24F FOG     WCI  29
Bronx Bot Gard   N/A     32  32 100 NW6       30.21F WCI  26
Bronx Lehman C   N/A     32  32 100 NW6         N/A  WCI  26
LaGuardia Arpt LGT SNOW  34  31  88 NW10      30.22F FOG     WCI  26
Queens College   N/A     34  32  93 NW8         N/A  WCI  27
Kennedy Intl   LGT SNOW  35  34  96 NW13      30.23F FOG     WCI  26
Breezy Point     N/A     32 N/A N/A NW12G18     N/A  WCI  23
Brooklyn Coll    N/A     34  32  93 NW12        N/A  WCI  25
Staten Island    N/A     32  32 100 NW9         N/A  WCI  24
Newark/Liberty LGT SNOW  34  31  88 NW8       30.24F FOG     WCI  27
Teterboro      LGT SNOW  33  31  92 NW7       30.23F FOG     WCI  27
$$

NYZ177-179-078>081-171800-
Long Island New York

CITY           SKY/WX    TMP DP  RH WIND       PRES   REMARKS
Jones Beach      N/A     34 N/A N/A NW10        N/A  WCI  26
Wantagh          N/A     34  34 100 NW7         N/A  WCI  28
Matinecock Pt    N/A     34 N/A N/A W7          N/A  WCI  28
Farmingdale    LGT SNOW  35  33  92 NW8       30.21F FOG     WCI  29
MacArthur/ISP  LGT RAIN  38  36  92 N10       30.18F FOG     WCI  31
Shirley        LGT RAIN  39  38  96 N3        30.18F FOG
Mt Sinai Harb    N/A    N/A N/A N/A NW5         N/A
Westhampton    CLOUDY    38  36  92 N3        30.19F
East Hampton   CLOUDY    36  35  96 NE5       30.17F WCI  32
Southold         N/A     36  36 100 E6          N/A  WCI  31
Montauk          N/A     39  37  92 NE7       30.18F WCI  34
$$

NYZ052-065-067-171800-
Hudson Valley

CITY           SKY/WX    TMP DP  RH WIND       PRES   REMARKS
White Plains   LGT SNOW  32  31  96 W10       30.19F VSB 1   WCI  24
Larchmont Harb   N/A     32 N/A N/A W10         N/A  WCI  24
Croton On Huds   N/A     32 N/A N/A NW7         N/A  WCI  26
Somers           N/A     32  30  93 NW5         N/A  WCI  27
Brewster         N/A     32  32 100 NW3         N/A
Newburgh       LGT SNOW  30  30 100 NW5       30.23F VSB 1   WCI  25
Montgomery     SNOW      31  29  92 CALM      30.22F VSB 1/2
Otisville        N/A     30  28  93 W3          N/A
Warwick          N/A     32  30  93 W7          N/A  WCI  26
Suffern          N/A     32  30  93 NW5         N/A  WCI  27
Poughkeepsie   SNOW      30  28  92 NW3       30.23F VSB 1/2
Albany         LGT SNOW  26  21  81 NW12      30.27F VSB 1   WCI  16
$$

NJZ001-105-106-008-010-013-015-019>022-104-171800-
New Jersey

CITY           SKY/WX    TMP DP  RH WIND       PRES   REMARKS
Newark/Liberty LGT SNOW  34  31  88 NW8       30.24F FOG     WCI  27
Teterboro      LGT SNOW  33  31  92 NW7       30.23F FOG     WCI  27
Caldwell       CLOUDY    32  30  92 NW5       30.24F WCI  27
Somerville     CLOUDY    31  29  92 VRB7      30.24F FOG     WCI  24
Linden         LGT SNOW  33  31  92 CALM      30.25F
Perth Amboy      N/A     32 N/A N/A NW10        N/A  WCI  24
Sussex         LGT SNOW  30  27  88 W5        30.24F FOG     WCI  25
Andover          N/A     29  26  89 NW6       30.24F WCI  23
Trenton        CLOUDY    29  25  85 NW10      30.27F FOG     WCI  20
Millville      CLOUDY    29  27  92 NW10G23   30.28F WCI  20
Atlantic City  LGT SNOW  32  31  96 NW15      30.26F FOG     WCI  22
Wrightstown    CLOUDY    30  28  92 NW9G18    30.24F WCI  21
Toms River     LGT SNOW  33  31  92 NW9       30.25F FOG     WCI  25
Belmar         FLURRIES  33  32  96 NW14      30.24F WCI  23
$$

PAZ047>061-062-071-171800-
Eastern Pennsylvania

CITY           SKY/WX    TMP DP  RH WIND       PRES   REMARKS
Philadelphia   CLOUDY    29  21  72 NW14      30.31F WCI  18
Allentown      FAIR      25  15  66 NW14G21   30.30F WCI  13
Scranton       CLOUDY    18  11  74 NW9       30.31F WCI   7
$$

CTZ002-004>006-009-010-012-RIZ004-006-007-MAZ004-011-015-171800-
Southern New England

 In CT

CITY           SKY/WX    TMP DP  RH WIND       PRES   REMARKS
Bradley Intl   LGT SNOW  32  30  92 NW7       30.20F FOG     WCI  26
Hartford       LGT SNOW  33  31  92 NW7       30.20F FOG     WCI  27
Danbury        LGT SNOW  34  32  92 CALM      30.20F VSB 1
Wtrbury/Oxford LGT SNOW  33  31  92 NW3       30.18F VSB 1
Norwalk Harbor   N/A     32 N/A N/A NW5         N/A  WCI  27
Bridgeport     MIX PCPN  36  34  92 NW6       30.20F FOG     WCI  31
Meriden        LGT SNOW  32  30  92 NW6       30.20F FOG     WCI  26
New Haven      CLOUDY    35  33  92 N6        30.20F FOG     WCI  30
Chester        CLOUDY    36  34  93 N5        30.16F WCI  32
Groton         CLOUDY    37  35  92 N3        30.18F
Willimantic    CLOUDY    35  33  92 CALM      30.19F

 In RI

CITY           SKY/WX    TMP DP  RH WIND       PRES   REMARKS
Providence     LGT SNOW  35  34  96 N7        30.19F VSB 1   WCI  29
Block Island   CLOUDY    36  35  96 N9        30.18F WCI  29
Westerly       CLOUDY    37  37 100 N3        30.18F

In MA

CITY           SKY/WX    TMP DP  RH WIND       PRES   REMARKS
Boston         LGT SNOW  33  32  96 N7        30.20F FOG     WCI  27
Worcester      LGT SNOW  30  27  88 NE7       30.15F FOG     WCI  23
Westfield      LGT SNOW  31  30  96 N7        30.20F FOG     WCI  24
Provincetown   LGT RAIN  37  36  96 NE13      30.18F WCI  29
Nantucket      LGT RAIN  39  39 100 N15       30.12F FOG     WCI  31
$$

ANZ330-335-338-340-345-350-353-355-171800-
Coastal Marine Observations


STATION/POSITION TIME  SKY/WX   TEMP    WIND        PRES    VSBY  WAVE
                                AIR SEA DIR/SP/G                  HT/PER
                 (UTC)          (F)     (DEG/KT/KT) (MB)    (MI)  (FT/S)
NY Harb Entrance 1550            35 42  310/ 16/ 17 1023.8          5/11
20 S Fire Island 1550            42 41  320/  4/  6 1022.9          6/10
15 E Barnegat Li 1630               43                N/A           6/11
Hudson Canyon    1550            46 51   60/ 10/ 12 1021.8          7/11
Kings Point      1630            32 32   20/  5/  6 1024.7
Execution Rocks  NOT AVBL
Western LI Sound NOT AVBL
Central LI Sound 1630            36      50/  6/  8   N/A           2
Robbins Reef     1630            32     310/  9/ 12 1025.2
$$


>>>>>>>>>>>>>>>>>>>>>>>>>>>> KEY <<<<<<<<<<<<<<<<<<<<<<<<<<<
>                                                          <
>     SKY/WX - Sky Condition/Present Weather               <
>     TMP    - Temperature in Fahrenheit                   <
>     DP     - Dew Point in Fahrenheit                     <
>     RH     - Relative Humidity in Percent                <
>     WIND   - Direction (from) and Speed in MPH           <
>     PRES   - Mean Sea Level Pressure (inches of Hg)      <
>     WCI    - Wind Chill Index                            <
>     VSB    - Visibility in Miles                         <
>     HX     - Heat Index                                  <
>     TC     - Temperature in Celsius                      <
>     VRB    - Varibale Wind Direction                     <
>                                                          <
>>>>>>>>>>>>>>>>>>>>>>>>>>>> KEY <<<<<<<<<<<<<<<<<<<<<<<<<<<




USA.gov is the U.S. government's official web portal to all federal, state and local government web resources and services.